Weather in Parga

Greece     39°17′12″N   20°24′00″E
temp.,
°C
wind,
m/s
gust,
m/s
humid.,
%
clouds,
%
prec.,
mm/h
press.,
hPa
HPBL,
m
18 may, tue
tue1800:00+17ese22850 0.0 101247
03:00+16e33810 0.0 101272
06:00+16ene22820 0.0 101246
09:00+19sse11720 0.0 1013321
12:00+20sw22660 0.0 1014693
15:00+21w45650 0.0 1014742
18:00+21w34630 0.0 1014543
21:00+17sw018056 0.0 101449
19 may, wed
wed1900:00+17e2277100 0.0 101539
03:00+16e11810 0.0 101548
06:00+15ene11820 0.0 101440
09:00+19s11684 0.0 1015237
12:00+21sw22560 0.0 1015512
15:00+21wsw33480 0.0 1015603
18:00+20sw22493 0.0 1014498
21:00+17s016688 0.0 101320
20 may, thu
thu2000:00+16nne11660 0.0 101321
03:00+15ene22665 0.0 101338
06:00+15ene11680 0.0 101237
09:00+18wnw126014 0.0 1012320
12:00+20w565683 0.0 1013990
15:00+20wnw775486 0.0 10131251
18:00+19wnw7756100 0.0 10121040
21:00+16nw56635 0.0 1013392
21 may, fri
fri2100:00+14nnw4474100 0.0 1013310
03:00+13n337595 0.0 1012119
06:00+13nne22732 0.0 101290
09:00+16nw12570 0.0 1012379
12:00+19w44471 0.0 10121188
15:00+20wnw98532 0.0 1012995
18:00+20nw7105357 0.0 1012881
21:00+17nnw34680 0.0 1014147
22 may, sat
sat2200:00+16ne22650 0.0 101549
03:00+14ne22650 0.0 101654
06:00+13ne22620 0.0 101554
09:00+17s00490 0.0 1016273
12:00+19wsw325125 0.0 1017748
15:00+20w44502 0.0 1017653
18:00+21w44543 0.0 1016663
21:00+17nw34720 0.0 1017150